"Pseudo-MPEC" for C0DFQU5

Created 2022 Nov 26 23:22:04 UT using Find_Orb

Click here for an explanation of pseudo-MPECs

 
 Astrometry: 
     C0DFQU5* C2022 10 30qDolbp@Astrometry#kyZ/(@DE1YeZIcOy5w%hPJ7Bf.CSXS%`sIV00
     C0DFQU5  C2022 10 30+P5?oIhXSBGP!MrRQcNqqEredacted;o%aM2fg,iM6Xl+(4=[V?eV00
     C0DFQU5  C2022 10 302F7RlIL7r+Ry=rgI:9t`DVNk_[0q'!5click3V[](M/g%/*RPTnDV00
     C0DFQU5  C2022 10 30GB*FyXbDqw/hX0#herelf_)Hf85k!@wQNkOu4Yugl]ec4t,m+c9KV00
     C0DFQU5 mC2022 10 30Bth4cZj)1u1#Kak*\2Ptwn.LUforW=n\@jV.YtBIWTDi1o*VTfh^V00
     C0DFQU5 mC2022 10 30:?R#k,2$[9DKIR*CO-!]RDn!NJUnlncef1-x31YL/_v;CsjQt']rV00
     C0DFQU5 mC2022 10 30u^ynokb2WbxBIPU4d\w#29F_]Q4e4,:M-:AVexplanation_]hpyV00
     C0DFQU5 KC2022 10 31.36873 06 23 56.79 +36 30 28.4    ~AVAb 22.1 RoNEOCP291
     C0DFQU5 KC2022 10 31.38603 06 23 56.54 +36 30 33.2    ~AVAb 21.9 RoNEOCP291
     C0DFQU5 KC2022 10 31.40333 06 23 56.28 +36 30 37.8    ~AVAb 22.2 RoNEOCP291

Station data:
(291) LPL/Spacewatch II  (N31.961669 W111.599905)  US/Arizona.  Observers J.
   V. Scotti, R. S. McMillan. 1.8-m f/2.7 reflector + CCD.
(V00) Kitt Peak-Bok  (N31.963125 W111.600190)  US/Arizona.  Observers T. A.
   Pruyne, B. M. Africano, E. J. Christensen, G. A. Farneth, D. C. Fuls, A.
   R. Gibbs, A. D. Grauer, H. Gröller, J. A. Johnson, R. A. Kowalski, S. M.
   Larson, G. J. Leonard, D. Rankin, R. L. Seaman, F. C. Shelly, K. W.
   Wierzchoś. 2.25-m reflector + CCD.

Orbital elements:  C0DFQU5
   Perihelion 2021 Aug 31.44629 +/- 725 TT = 10:42:39 (JD 2459457.94629)
Epoch 2022 Oct 31.0 TT = JDT 2459883.5   Earth MOID: 0.7353   AutoNEOCP
M  99.25717908 +/- 100              (J2000 ecliptic)
n   0.23324242 +/- 0.152            Peri.  305.37365 +/- 80
a   2.61375183 +/- 1.13             Node     0.12563 +/- 49
e   0.3401287 +/- 0.236             Incl.   10.53639 +/- 18
P   4.23                   H 17.3   G  0.15   U 11.5  SR
q 1.72473975 +/- 2.14    Q 3.50276391 +/- 43.3
From 10 observations 2022 Oct. 30-31 (23.5 hr); mean residual 0".11
Residuals in arcseconds: 
221030 V00  .14+  .07-    221030 V00  .01-  .13-    221031 291  .04+  .06+    
221030 V00  .07+  .13+    221030 V00  .10-  .00     221031 291  .07+  .02+    
221030 V00  .16+  .13-    221030 V00  .26-  .15+    
221030 V00  .03-  .05+    221031 291  .08-  .09-    

Ephemerides (geocentric):
Date (UTC) HH   RA             Dec           delta  r     elong  mag " sig PA
---- --------  ------------   ------------  ------ ------ -----  --- --------
2022 11 26 23  06 07 02.772   +38 12 42.26  2.1949 3.0856 149.4 22.1 4206   0
2022 11 27 00  06 07 00.253   +38 12 49.16  2.1947 3.0857 149.5 22.1 4221 179
2022 11 27 01  06 06 57.732   +38 12 56.04  2.1945 3.0858 149.5 22.1 4236 179
2022 11 27 02  06 06 55.208   +38 13 02.92  2.1944 3.0859 149.5 22.1 4251 179
2022 11 27 03  06 06 52.683   +38 13 09.78  2.1942 3.0861 149.6 22.1 4265 179
2022 11 27 04  06 06 50.154   +38 13 16.62  2.1941 3.0862 149.6 22.1 4280 179
2022 11 27 05  06 06 47.624   +38 13 23.46  2.1939 3.0863 149.7 22.1 4295 179
2022 11 27 06  06 06 45.091   +38 13 30.28  2.1938 3.0864 149.7 22.1 4310 179
2022 11 27 07  06 06 42.556   +38 13 37.09  2.1936 3.0865 149.8 22.1 4325 179
2022 11 27 08  06 06 40.019   +38 13 43.88  2.1935 3.0866 149.8 22.1 4340 179
2022 11 27 09  06 06 37.479   +38 13 50.66  2.1933 3.0867 149.8 22.1 4355 179
2022 11 27 10  06 06 34.937   +38 13 57.43  2.1932 3.0868 149.9 22.1 4370 179
2022 11 27 11  06 06 32.393   +38 14 04.19  2.1930 3.0869 149.9 22.1 4385 179
2022 11 27 12  06 06 29.846   +38 14 10.93  2.1929 3.0870 150.0 22.1 4400 179
2022 11 27 13  06 06 27.298   +38 14 17.66  2.1927 3.0871 150.0 22.1 4416 179
2022 11 27 14  06 06 24.746   +38 14 24.37  2.1926 3.0872 150.1 22.1 4431 179
2022 11 27 15  06 06 22.193   +38 14 31.07  2.1924 3.0874 150.1 22.1 4446 179
2022 11 27 16  06 06 19.637   +38 14 37.76  2.1923 3.0875 150.1 22.1 4461 179
2022 11 27 17  06 06 17.079   +38 14 44.44  2.1921 3.0876 150.2 22.1 4477 179
2022 11 27 18  06 06 14.519   +38 14 51.10  2.1920 3.0877 150.2 22.1 4492 179
2022 11 27 19  06 06 11.957   +38 14 57.75  2.1918 3.0878 150.3 22.1 4507 179
2022 11 27 20  06 06 09.392   +38 15 04.38  2.1917 3.0879 150.3 22.1 4523 179
2022 11 27 21  06 06 06.825   +38 15 11.00  2.1916 3.0880 150.4 22.1 4538 179
2022 11 27 22  06 06 04.255   +38 15 17.61  2.1914 3.0881 150.4 22.1 4554 179
2022 11 27 23  06 06 01.684   +38 15 24.21  2.1913 3.0882 150.4 22.1 4569 179
2022 11 28 00  06 05 59.110   +38 15 30.79  2.1911 3.0883 150.5 22.1 4585 179
2022 11 28 01  06 05 56.534   +38 15 37.35  2.1910 3.0884 150.5 22.1 4600 179
2022 11 28 02  06 05 53.956   +38 15 43.91  2.1908 3.0885 150.6 22.1 4616 179
2022 11 28 03  06 05 51.375   +38 15 50.45  2.1907 3.0887 150.6 22.1 4632 179
2022 11 28 04  06 05 48.793   +38 15 56.97  2.1906 3.0888 150.7 22.1 4647 179
2022 11 28 05  06 05 46.208   +38 16 03.49  2.1904 3.0889 150.7 22.1 4663 179
2022 11 28 06  06 05 43.621   +38 16 09.99  2.1903 3.0890 150.7 22.1 4679 179
2022 11 28 07  06 05 41.031   +38 16 16.47  2.1901 3.0891 150.8 22.1 4695 179
2022 11 28 08  06 05 38.440   +38 16 22.94  2.1900 3.0892 150.8 22.1 4710 179
2022 11 28 09  06 05 35.846   +38 16 29.40  2.1898 3.0893 150.9 22.1 4726 179
2022 11 28 10  06 05 33.250   +38 16 35.85  2.1897 3.0894 150.9 22.1 4742 179
2022 11 28 11  06 05 30.652   +38 16 42.28  2.1896 3.0895 151.0 22.1 4758 179
2022 11 28 12  06 05 28.051   +38 16 48.69  2.1894 3.0896 151.0 22.1 4774 179
2022 11 28 13  06 05 25.449   +38 16 55.10  2.1893 3.0897 151.0 22.1 4790 179
2022 11 28 14  06 05 22.844   +38 17 01.49  2.1892 3.0898 151.1 22.1 4806 179
2022 11 28 15  06 05 20.237   +38 17 07.86  2.1890 3.0899 151.1 22.1 4822 179
2022 11 28 16  06 05 17.628   +38 17 14.22  2.1889 3.0901 151.2 22.1 4838 179
2022 11 28 17  06 05 15.016   +38 17 20.57  2.1887 3.0902 151.2 22.1 4854 179
2022 11 28 18  06 05 12.403   +38 17 26.90  2.1886 3.0903 151.3 22.1 4870 179
2022 11 28 19  06 05 09.787   +38 17 33.22  2.1885 3.0904 151.3 22.1 4887 179
2022 11 28 20  06 05 07.169   +38 17 39.53  2.1883 3.0905 151.3 22.1 4903 179
2022 11 28 21  06 05 04.550   +38 17 45.82  2.1882 3.0906 151.4 22.1 4919 179
2022 11 28 22  06 05 01.927   +38 17 52.10  2.1881 3.0907 151.4 22.1 4936 179